Location: Moena
(46.3667°N, 11.6500°E)
Time: 10:20:42
(UTC+00:00)

GP-B - Pass Details

Date: 16 June 2021
Orbit: 631 x 635 km, 89.8° (Epoch: 28 July)

Event Time Altitude Azimuth Distance (km) Brightness Sun altitude
Rises 23:29:13 0° 0° (N) 2,945 8.2 -20.2°
Reaches altitude 10° 23:31:27 10° 360° (N) 2,031 6.9 -20.1°
Maximum altitude 23:35:55 82° 273° (W) 647 3.0 -20.1°
Enters shadow 23:37:04 50° 193° (SSW) 813 3.2 -20.1°
